Home   Weather   Reynosa   Past weeks
Flag for Mexico

Past Weather in Reynosa, Tamaulipas, Mexico — Yesterday and Last 2 Weeks

Now
77 °F

Overcast.


Feels Like: 79 °F
Forecast: 77 / 63 °F
Wind: 9 mph from Southeast

Location: Miller International Airport

Current Time: Mar 21, 2019 at 7:42:46 pm

Latest Report: Mar 21, 2019 at 5:53 pm


Visibility: 10 mi

Pressure: 30.12 "Hg

Humidity: 48%

Dew Point: 56 °F

Location of ReynosaLocation

Past Weather in Reynosa — Graph

°F

Reynosa Temperature Yesterday

Maximum temperature yesterday: 70 °F (at 2:53 pm)
Minimum temperature yesterday: 63 °F (at 12:02 am)
Average temperature yesterday: 65 °F

High & Low Weather Summary for the Past Weeks

 TemperatureHumidityPressure
High98 °F (Mar 13, 4:53 pm)100% (Mar 8, 5:21 am)30.40 "Hg (Mar 8, 5:21 am)
Low51 °F (Mar 15, 11:53 pm)26% (Mar 13, 4:53 pm)29.57 "Hg (Mar 13, 4:53 pm)
Average70 °F77%30.06 "Hg
* Reported Mar 6 4:08 pm — Mar 21 5:53 pm, Reynosa. Weather by CustomWeather, © 2019

Note: Actual official high and low records may vary slightly from our data, if they occured in-between our weather recording intervals... More about our weather records

Advertising

Reynosa Weather History for the Previous 24 Hours

Scroll right to see more
 ConditionsComfort  
Time TempWeatherWind HumidityBarometerVisibility
5:53 pm
Thu, Mar 21
77 °FOvercast.9 mph48%30.12 "Hg10 mi
4:53 pm78 °FMore clouds than sun.12 mph48%30.11 "Hg10 mi
3:53 pm79 °FOvercast.12 mph45%30.14 "Hg10 mi
2:53 pm78 °FPartly sunny.7 mph43%30.16 "Hg10 mi
1:53 pm78 °FScattered clouds.7 mph48%30.20 "Hg10 mi
12:53 pm75 °FOvercast.6 mph55%30.23 "Hg10 mi
11:53 am72 °FSunny.7 mph61%30.25 "Hg10 mi
10:53 am70 °FSunny.6 mph68%30.26 "Hg10 mi
9:53 am68 °FPassing clouds.8 mph73%30.24 "Hg10 mi
8:53 am64 °FOvercast.9 mph87%30.23 "Hg10 mi
7:53 am62 °FScattered clouds.8 mph86%30.22 "Hg10 mi
6:53 am63 °FOvercast.5 mph90%30.21 "Hg10 mi
5:53 am62 °FOvercast.3 mph93%30.19 "Hg10 mi
4:53 am63 °FOvercast.No wind87%30.18 "Hg10 mi
3:53 am64 °FOvercast.6 mph87%30.19 "Hg10 mi
2:53 am64 °FOvercast.No wind87%30.20 "Hg10 mi
1:53 am64 °FOvercast.3 mph87%30.21 "Hg10 mi
12:53 am64 °FOvercast.5 mph87%30.21 "Hg10 mi
11:53 pm
Wed, Mar 20
64 °FOvercast.6 mph90%30.22 "Hg10 mi
10:53 pm65 °FOvercast.3 mph91%30.22 "Hg10 mi
9:53 pm65 °FOvercast.6 mph91%30.21 "Hg10 mi
8:53 pm65 °FOvercast.6 mph94%30.19 "Hg10 mi
8:05 pm65 °FMostly cloudy.3 mph94%30.19 "Hg10 mi
7:53 pm65 °FOvercast.5 mph94%30.18 "Hg10 mi
Weather by CustomWeather, © 2019

See weather overview